FW6138 Weather Reports


Display with metric or nautical units.
time (UTC)temp
F
wind
direction
speed
MPH
gust
MPH
rain 1hr
in
rain 24hr
in
rain mn
in
humidity
%
barometer
mb
20260503000033 82 343 0.0 3.0 0.00 0.00 0.00 47 1012.6
20260502234531 83 198 1.0 4.0 0.00 0.00 0.00 42 1012.8
20260502233033 82 167 1.0 5.0 0.00 0.00 0.00 43 1012.9
20260502231531 82 272 0.0 5.0 0.00 0.00 0.00 46 1013.2
20260502224531 81 320 3.0 7.0 0.00 0.00 0.00 47 1013.6
20260502220105 78 105 1.0 3.0 0.00 0.00 0.00 52 1014.3
20260502213031 75 222 2.0 6.0 0.00 0.00 0.00 58 1014.8
20260502210107 72 44 1.0 3.0 0.00 0.00 0.00 62 1015.3
20260502203112 69 291 3.0 6.0 0.00 0.00 0.00 67 1015.5
20260502201531 67 164 1.0 4.0 0.00 0.00 0.00 71 1015.7
20260502200028 64 265 2.0 6.0 0.00 0.00 0.00 74 1016.0
20260502194531 62 314 3.0 6.0 0.00 0.00 0.00 76 1016.1
20260502193030 62 348 1.0 5.0 0.00 0.00 0.00 75 1016.4
20260502191529 63 332 2.0 5.0 0.00 0.00 0.00 74 1016.8
20260502190029 63 356 2.0 6.0 0.00 0.00 0.00 73 1017.0
20260502184532 64 335 3.0 6.0 0.00 0.00 0.00 74 1017.1
20260502183031 62 28 2.0 5.0 0.00 0.00 0.00 75 1017.2
20260502163038 57 40 2.0 5.0 0.00 0.00 0.00 82 1017.7
20260502161538 56 32 2.0 4.0 0.00 0.00 0.00 83 1017.7
20260502160108 56 345 1.0 3.0 0.00 0.00 0.00 84 1017.8
20260502151537 54 111 1.0 4.0 0.00 0.00 0.00 88 1017.4
20260502130105 51 135 0.0 3.0 0.00 0.00 0.00 90 1016.3
20260502123031 52 56 0.0 2.0 0.00 0.00 0.00 88 1016.1
20260502121529 53 292 0.0 0.0 0.00 0.00 0.00 88 1016.2
20260502114539 53 156 1.0 4.0 0.00 0.00 0.00 87 1016.4
20260502113033 53 156 1.0 4.0 0.00 0.00 0.00 87 1016.1
20260502111607 54 236 0.0 4.0 0.00 0.00 0.00 87 1016.1
20260502110040 54 270 1.0 4.0 0.00 0.00 0.00 86 1016.3
20260502104531 55 183 0.0 3.0 0.00 0.00 0.00 86 1016.6
20260502101536 54 160 3.0 5.0 0.00 0.00 0.00 87 1016.7
20260502091533 54 157 3.0 4.0 0.00 0.00 0.00 87 1017.0
20260502071530 55 168 2.0 5.0 0.00 0.00 0.00 82 1016.8
20260502070031 56 183 1.0 4.0 0.00 0.00 0.00 80 1016.8
20260502064531 57 211 0.0 3.0 0.00 0.00 0.00 79 1016.9
20260502061533 58 166 1.0 4.0 0.00 0.00 0.00 77 1016.8
20260502060030 59 129 2.0 4.0 0.00 0.00 0.00 75 1016.7
20260502054530 60 84 0.0 3.0 0.00 0.00 0.00 73 1016.5
20260502053030 60 186 1.0 5.0 0.00 0.00 0.00 74 1016.6
20260502051537 60 219 2.0 5.0 0.00 0.00 0.00 73 1016.5
20260502050030 61 186 1.0 3.0 0.00 0.00 0.00 71 1016.2
20260502044530 62 142 2.0 4.0 0.00 0.00 0.00 69 1016.1
20260502043037 62 85 1.0 4.0 0.00 0.00 0.00 69 1015.9
20260502040042 63 285 3.0 9.0 0.00 0.00 0.00 68 1015.3
20260502034530 64 157 1.0 3.0 0.00 0.00 0.00 67 1015.4
20260502033031 64 159 1.0 4.0 0.00 0.00 0.00 66 1015.4
20260502031533 66 225 0.0 2.0 0.00 0.00 0.00 61 1015.1
20260502030030 67 259 0.0 4.0 0.00 0.00 0.00 57 1014.8
20260502023030 70 37 2.0 5.0 0.00 0.00 0.00 53 1014.1
20260502021537 71 16 2.0 5.0 0.00 0.00 0.00 50 1014.0
20260502020030 74 341 0.0 4.0 0.00 0.00 0.00 47 1013.8
20260502014531 76 346 2.0 5.0 0.00 0.00 0.00 46 1013.7
20260502013031 78 25 2.0 4.0 0.00 0.00 0.00 42 1013.6
20260502011535 79 5 1.0 5.0 0.00 0.00 0.00 41 1013.5
20260502010036 79 323 2.0 5.0 0.00 0.00 0.00 38 1013.5
20260502001530 80 9 3.0 7.0 0.00 0.00 0.00 38 1013.8